Location: Althorst
(53.6379°N, 10.7715°E)
Time: 18:27:10
(UTC+00:00)

NOSS 3-1 (C) - Pass Details

Date: 10 December 2019
Orbit: 763 x 1445 km, 63.4° (Epoch: 19 January)

Event Time Altitude Azimuth Distance (km) Brightness Sun altitude
Rises 17:47:48 0° 309° (NW) 3,787 7.2 -23.8°
Reaches altitude 10° 17:50:17 10° 312° (NW) 2,924 6.5 -24.2°
Maximum altitude 17:57:21 72° 37° (NE) 1,276 3.9 -25.2°
Enters shadow 17:59:49 47° 106° (ESE) 1,617 4.2 -25.6°
